Tracking 30995 objects as of 7-Jul-2025
HD Live streaming from Space Station
objects crossing your sky now

DELTA 2 R/B(1)

Track DELTA 2 R/B(1) now!
10-day predictions


NORAD ID: 27665
Int'l Code: 2003-005C
Perigee: 794.3 km
Apogee: 807.4 km
Inclination: 39.6 °
Period: 100.7 minutes
Semi major axis: 7171 km
RCS: 9.691 m2 (large)
Launch date: January 29, 2003
Source: United States (US)
Launch site: AIR FORCE EASTERN TEST RANGE (AFETR)

Note: This is a ROCKET BODY
Your satellite tracking list
MONITOR-3
Track 1 satellite(s)




NASA's NSSDC Master Catalog

Two Line Element Set (TLE):
1 27665U 03005C   25187.59510650  .00000100  00000-0  71752-4 0  9995
2 27665  39.5746 247.5331 0009123 313.9810 198.6976 14.29404484171563
Source of the keplerian elements: AFSPC